This demonstration page uses our WeatherBlox Daily Observations layout. Learn more.

Left ArrowRight Arrow

39.01783, -85.05884

Hourly Observations for May 21, 2015

Temp ( °F °C ) Dew Point ( °F °C ) Humidity (%) Winds ( mph kmh ) Pressure ( in mb ) Visibility ( mi km ) Precip ( " mm )
12:52 am 00:52 Cloudy with Light Rain 53 11.7 46 7.8 77 77 NNE 14 22 29.98 1015 7 11 0.01 0.25
1:52 am 01:52 Cloudy 53 11.7 45 7.2 74 74 NNE 13 20 29.96 1015 10 16 0.00 0.03
2:52 am 02:52 Cloudy 52 11.1 44 6.7 75 75 NNE 12 19 29.96 1015 10 16 0.00 0.00
3:52 am 03:52 Cloudy 52 11.1 44 6.7 75 75 NNE 12 19 29.96 1015 10 16 0.00 0.00
4:52 am 04:52 Cloudy 51 10.6 44 6.7 77 77 N 9 15 29.97 1015 9 14 0.00 0.00
5:52 am 05:52 Cloudy 51 10.6 44 6.7 77 77 N 9 15 29.98 1015 9 14 0.00 0.00
6:52 am 06:52 Cloudy 50 10 44 6.7 80 80 N 7 11 30.01 1016 8 13 0.00 0.00
7:52 am 07:52 Cloudy 50 10 44 6.7 80 80 N 6 9 30.02 1017 8 13 0.00 0.00
8:16 am 08:16 Cloudy 50 10 45 7 82 82 NNW 8 13 30.03 1017 8 13 0.00 0.00
8:52 am 08:52 Cloudy 51 10.6 44 6.7 77 77 NNW 8 13 30.04 1017 9 14 0.00 0.00
9:06 am 09:06 Cloudy 52 11 45 7 77 77 NNW 8 13 30.03 1017 8 13 0.00 0.00
9:52 am 09:52 Cloudy 52 11.1 44 6.7 75 75 NNW 6 9 30.04 1017 8 13 0.00 0.00
10:25 am 10:25 Cloudy 54 12 45 7 72 72 NW 9 15 30.06 1018 8 13 0.00 0.00
10:52 am 10:52 Cloudy 52 11.1 45 7.2 77 77 NNW 9 15 30.05 1018 8 13 0.00 0.00
11:52 am 11:52 Cloudy 53 11.7 44 6.7 72 72 NW 9 15 30.04 1017 9 14 0.00 0.00
12:52 pm 12:52 Cloudy 54 12.2 44 6.7 69 69 NW 13 20 30.05 1018 9 14 0.00 0.00
1:45 pm 13:45 Cloudy 54 12 45 7 72 72 NW 12 19 30.06 1018 9 14 0.00 0.00
1:52 pm 13:52 Cloudy 54 12.2 43 6.1 67 67 NW 10 17 30.05 1018 9 14 0.00 0.00
2:52 pm 14:52 Cloudy 55 12.8 42 5.6 62 62 NW 13 20 30.06 1018 10 16 0.00 0.00
3:52 pm 15:52 Cloudy 56 13.3 40 4.4 55 55 NW 13 20 30.08 1019 10 16 0.00 0.00
4:52 pm 16:52 Cloudy 57 13.9 40 4.4 53 53 NW 14 22 30.09 1019 10 16 0.00 0.00
5:52 pm 17:52 Cloudy 57 13.9 41 5 55 55 NW 14 22 30.08 1019 10 16 0.00 0.00
6:52 pm 18:52 Cloudy 58 14.4 42 5.6 56 56 NW 10 17 30.08 1019 10 16 0.00 0.00
7:52 pm 19:52 Mostly Sunny 56 13.3 41 5 57 57 NW 9 15 30.08 1019 10 16 0.00 0.00
8:52 pm 20:52 Clear 53 11.7 41 5 64 64 W 5 7 30.09 1019 10 16 0.00 0.00
9:52 pm 21:52 Clear 51 10.6 41 5 69 69 WSW 5 7 30.10 1019 10 16 0.00 0.00
10:52 pm 22:52 Clear 49 9.4 41 5 74 74 SW 3 6 30.13 1020 10 16 0.00 0.00
11:52 pm 23:52 Clear 48 8.9 41 5 77 77 SW 5 7 30.13 1020 10 16 0.00 0.00

Powered by AerisWeather